Time,TemperatureF,DewpointF,PressureIn,WindDirection,WindDirectionDegrees,WindSpeedMPH,WindSpeedGustMPH,Humidity,HourlyPrecipIn,Conditions,Clouds,dailyrainin,SoftwareType,DateUTC
2013-03-15 00:00:00,31.1,14.6,29.86,North,0,0.0,0.0,50,0.00,BKN,,0.00,WeatherDisplay:10.37,2013-03-15 04:00:00,
2013-03-15 00:05:00,30.9,14.4,29.86,NW,320,10.4,10.4,50,0.00,BKN,,0.00,WeatherDisplay:10.37,2013-03-15 04:05:00,
2013-03-15 00:10:00,30.8,14.8,29.86,NNW,331,9.0,9.0,51,0.00,BKN,,0.00,WeatherDisplay:10.37,2013-03-15 04:10:00,
2013-03-15 00:15:00,30.8,14.8,29.86,WNW,291,13.0,13.0,51,0.00,BKN,,0.00,WeatherDisplay:10.37,2013-03-15 04:15:00,
2013-03-15 00:20:00,30.9,14.9,29.86,NNW,331,15.0,15.0,51,0.00,BKN,,0.00,WeatherDisplay:10.37,2013-03-15 04:20:00,
2013-03-15 00:25:00,30.9,14.4,29.86,NW,309,12.7,12.7,50,0.00,BKN,,0.00,WeatherDisplay:10.37,2013-03-15 04:25:00,
2013-03-15 00:30:00,30.8,14.3,29.86,WNW,294,11.5,11.5,50,0.00,BKN,,0.00,WeatherDisplay:10.37,2013-03-15 04:30:00,
2013-03-15 00:35:00,30.9,14.4,29.86,NW,306,6.9,6.9,50,0.00,BKN,,0.00,WeatherDisplay:10.37,2013-03-15 04:35:00,
2013-03-15 00:40:00,30.8,14.3,29.86,NW,306,9.2,9.2,50,0.00,BKN,,0.00,WeatherDisplay:10.37,2013-03-15 04:40:00,
2013-03-15 00:45:00,30.7,14.2,29.86,WNW,292,5.0,5.0,50,0.00,BKN,,0.00,WeatherDisplay:10.37,2013-03-15 04:45:00,
2013-03-15 00:50:00,30.7,14.2,29.86,NW,316,15.0,15.0,50,0.00,BKN,,0.00,WeatherDisplay:10.37,2013-03-15 04:50:00,
2013-03-15 00:55:00,30.6,14.1,29.86,NW,314,11.5,11.5,50,0.00,BKN,,0.00,WeatherDisplay:10.37,2013-03-15 04:55:00,
2013-03-15 01:00:00,30.5,13.6,29.86,NNW,338,17.3,17.3,49,0.00,BKN,,0.00,WeatherDisplay:10.37,2013-03-15 05:00:00,
2013-03-15 01:05:00,30.7,13.8,29.86,WNW,299,12.0,12.0,49,0.00,BKN,,0.00,WeatherDisplay:10.37,2013-03-15 05:05:00,
2013-03-15 01:10:00,30.7,13.3,29.86,NW,320,19.6,19.6,48,0.00,BKN,,0.00,WeatherDisplay:10.37,2013-03-15 05:10:00,
2013-03-15 01:15:00,30.8,13.4,29.86,WNW,302,17.3,17.3,48,0.00,BKN,,0.00,WeatherDisplay:10.37,2013-03-15 05:15:00,
2013-03-15 01:20:00,30.7,13.3,29.86,NW,314,15.0,15.0,48,0.00,BKN,,0.00,WeatherDisplay:10.37,2013-03-15 05:20:00,
2013-03-15 01:25:00,30.7,13.3,29.86,NW,315,19.6,19.6,48,0.00,BKN,,0.00,WeatherDisplay:10.37,2013-03-15 05:25:00,
2013-03-15 01:30:00,30.7,13.3,29.86,WNW,289,13.0,13.0,48,0.00,BKN,,0.00,WeatherDisplay:10.37,2013-03-15 05:30:00,
2013-03-15 01:35:00,30.7,13.3,29.86,WNW,294,17.3,17.3,48,0.00,BKN,,0.00,WeatherDisplay:10.37,2013-03-15 05:35:00,
2013-03-15 01:40:00,30.7,13.3,29.86,WNW,298,11.5,11.5,48,0.00,BKN,,0.00,WeatherDisplay:10.37,2013-03-15 05:40:00,
2013-03-15 01:45:00,30.6,12.7,29.86,North,360,17.3,17.3,47,0.00,BKN,,0.00,WeatherDisplay:10.37,2013-03-15 05:45:00,
2013-03-15 01:50:00,30.7,12.8,29.87,WNW,292,16.1,16.1,47,0.00,BKN,,0.00,WeatherDisplay:10.37,2013-03-15 05:50:00,
2013-03-15 01:55:00,30.6,13.2,29.87,NW,325,13.8,13.8,48,0.00,BKN,,0.00,WeatherDisplay:10.37,2013-03-15 05:55:00,
2013-03-15 02:00:00,30.6,12.2,29.87,WNW,298,21.9,21.9,46,0.00,BKN,,0.00,WeatherDisplay:10.37,2013-03-15 06:00:00,
2013-03-15 02:05:00,30.7,12.8,29.87,NW,324,16.1,16.1,47,0.00,FEW,,0.00,WeatherDisplay:10.37,2013-03-15 06:05:00,
2013-03-15 02:10:00,30.6,12.7,29.87,NW,317,16.1,16.1,47,0.00,FEW,,0.00,WeatherDisplay:10.37,2013-03-15 06:10:00,
2013-03-15 02:15:00,30.6,12.7,29.87,NW,321,12.7,12.7,47,0.00,FEW,,0.00,WeatherDisplay:10.37,2013-03-15 06:15:00,
2013-03-15 02:20:00,30.5,12.6,29.87,West,275,15.0,15.0,47,0.00,FEW,,0.00,WeatherDisplay:10.37,2013-03-15 06:20:00,
2013-03-15 02:25:00,30.4,12.5,29.86,WNW,303,16.1,16.1,47,0.00,FEW,,0.00,WeatherDisplay:10.37,2013-03-15 06:25:00,
2013-03-15 02:30:00,30.3,12.5,29.86,WNW,296,11.5,11.5,47,0.00,FEW,,0.00,WeatherDisplay:10.37,2013-03-15 06:30:00,
2013-03-15 02:35:00,30.2,12.4,29.87,WNW,298,15.0,15.0,47,0.00,FEW,,0.00,WeatherDisplay:10.37,2013-03-15 06:35:00,
2013-03-15 02:40:00,30.2,12.8,29.87,NW,310,12.0,12.0,48,0.00,FEW,,0.00,WeatherDisplay:10.37,2013-03-15 06:40:00,
2013-03-15 02:45:00,30.2,12.8,29.87,NW,312,11.5,11.5,48,0.00,FEW,,0.00,WeatherDisplay:10.37,2013-03-15 06:45:00,
2013-03-15 02:50:00,30.1,12.3,29.87,WNW,298,15.0,15.0,47,0.00,FEW,,0.00,WeatherDisplay:10.37,2013-03-15 06:50:00,
2013-03-15 02:55:00,30.1,12.7,29.86,WNW,296,4.6,4.6,48,0.00,FEW,,0.00,WeatherDisplay:10.37,2013-03-15 06:55:00,
2013-03-15 03:00:00,30.2,12.8,29.87,NW,321,18.4,18.4,48,0.00,FEW,,0.00,WeatherDisplay:10.37,2013-03-15 07:00:00,
2013-03-15 03:05:00,30.3,12.9,29.86,WNW,291,11.5,11.5,48,0.00,CLR,,0.00,WeatherDisplay:10.37,2013-03-15 07:05:00,
2013-03-15 03:10:00,30.3,13.4,29.86,NNW,331,15.0,15.0,49,0.00,CLR,,0.00,WeatherDisplay:10.37,2013-03-15 07:10:00,
2013-03-15 03:15:00,30.3,13.4,29.86,NW,324,19.6,19.6,49,0.00,CLR,,0.00,WeatherDisplay:10.37,2013-03-15 07:15:00,
2013-03-15 03:20:00,30.3,13.4,29.87,NW,314,12.7,12.7,49,0.00,CLR,,0.00,WeatherDisplay:10.37,2013-03-15 07:20:00,
2013-03-15 03:25:00,30.3,13.4,29.86,WNW,287,15.0,15.0,49,0.00,CLR,,0.00,WeatherDisplay:10.37,2013-03-15 07:25:00,
2013-03-15 03:30:00,30.3,13.4,29.86,NW,309,16.1,16.1,49,0.00,CLR,,0.00,WeatherDisplay:10.37,2013-03-15 07:30:00,
2013-03-15 03:35:00,30.2,12.8,29.86,NW,306,12.7,12.7,48,0.00,CLR,,0.00,WeatherDisplay:10.37,2013-03-15 07:35:00,
2013-03-15 03:40:00,30.2,13.3,29.86,NW,322,13.0,13.0,49,0.00,CLR,,0.00,WeatherDisplay:10.37,2013-03-15 07:40:00,
2013-03-15 03:45:00,30.1,13.2,29.86,NW,312,13.8,13.8,49,0.00,CLR,,0.00,WeatherDisplay:10.37,2013-03-15 07:45:00,
2013-03-15 03:50:00,30.1,13.2,29.86,North,360,16.1,16.1,49,0.00,CLR,,0.00,WeatherDisplay:10.37,2013-03-15 07:50:00,
2013-03-15 03:55:00,30.2,13.8,29.86,NW,319,10.4,10.4,50,0.00,CLR,,0.00,WeatherDisplay:10.37,2013-03-15 07:55:00,
2013-03-15 04:00:00,30.2,13.8,29.86,WNW,294,19.6,19.6,50,0.00,CLR,,0.00,WeatherDisplay:10.37,2013-03-15 08:00:00,
2013-03-15 04:05:00,30.1,13.2,29.86,NW,317,17.3,17.3,49,0.00,CLR,,0.00,WeatherDisplay:10.37,2013-03-15 08:05:00,
2013-03-15 04:10:00,30.1,13.2,29.86,WNW,286,18.4,18.4,49,0.00,CLR,,0.00,WeatherDisplay:10.37,2013-03-15 08:10:00,
2013-03-15 04:15:00,30.1,13.7,29.86,WNW,296,17.3,17.3,50,0.00,CLR,,0.00,WeatherDisplay:10.37,2013-03-15 08:15:00,
2013-03-15 04:20:00,30.1,13.7,29.86,NNW,333,15.0,15.0,50,0.00,CLR,,0.00,WeatherDisplay:10.37,2013-03-15 08:20:00,
2013-03-15 04:25:00,29.9,13.5,29.86,NW,311,13.8,13.8,50,0.00,CLR,,0.00,WeatherDisplay:10.37,2013-03-15 08:25:00,
2013-03-15 04:30:00,29.9,13.0,29.86,NNW,328,17.3,17.3,49,0.00,CLR,,0.00,WeatherDisplay:10.37,2013-03-15 08:30:00,
2013-03-15 04:35:00,29.8,13.4,29.86,NW,319,13.8,13.8,50,0.00,CLR,,0.00,WeatherDisplay:10.37,2013-03-15 08:35:00,
2013-03-15 04:40:00,29.6,13.2,29.86,NW,304,13.8,13.8,50,0.00,CLR,,0.00,WeatherDisplay:10.37,2013-03-15 08:40:00,
2013-03-15 04:45:00,29.6,13.2,29.86,NW,304,16.1,16.1,50,0.00,CLR,,0.00,WeatherDisplay:10.37,2013-03-15 08:45:00,
2013-03-15 04:50:00,29.5,13.1,29.86,NW,317,17.3,17.3,50,0.00,CLR,,0.00,WeatherDisplay:10.37,2013-03-15 08:50:00,
2013-03-15 04:55:00,29.4,13.0,29.86,NW,313,15.0,15.0,50,0.00,CLR,,0.00,WeatherDisplay:10.37,2013-03-15 08:55:00,
2013-03-15 05:00:00,29.4,13.0,29.87,NW,316,13.8,13.8,50,0.00,CLR,,0.00,WeatherDisplay:10.37,2013-03-15 09:00:00,
2013-03-15 05:05:00,29.3,13.4,29.86,NNW,327,11.5,11.5,51,0.00,CLR,,0.00,WeatherDisplay:10.37,2013-03-15 09:05:00,
2013-03-15 05:10:00,29.1,13.2,29.87,WNW,296,11.5,11.5,51,0.00,CLR,,0.00,WeatherDisplay:10.37,2013-03-15 09:10:00,
2013-03-15 05:15:00,29.0,13.1,29.87,NW,323,10.4,10.4,51,0.00,CLR,,0.00,WeatherDisplay:10.37,2013-03-15 09:15:00,
2013-03-15 05:20:00,28.9,13.5,29.87,WNW,296,10.4,10.4,52,0.00,CLR,,0.00,WeatherDisplay:10.37,2013-03-15 09:20:00,
2013-03-15 05:25:00,28.8,13.4,29.87,NNW,333,11.0,11.0,52,0.00,CLR,,0.00,WeatherDisplay:10.37,2013-03-15 09:25:00,
2013-03-15 05:30:00,28.9,12.6,29.87,NNW,327,26.5,26.5,50,0.00,CLR,,0.00,WeatherDisplay:10.37,2013-03-15 09:30:00,
2013-03-15 05:35:00,28.9,13.0,29.87,NW,318,17.3,17.3,51,0.00,CLR,,0.00,WeatherDisplay:10.37,2013-03-15 09:35:00,
2013-03-15 05:40:00,28.8,12.9,29.88,NW,319,12.7,12.7,51,0.00,CLR,,0.00,WeatherDisplay:10.37,2013-03-15 09:40:00,
2013-03-15 05:45:00,28.8,12.9,29.88,NNW,327,21.9,21.9,51,0.00,CLR,,0.00,WeatherDisplay:10.37,2013-03-15 09:45:00,
2013-03-15 05:50:00,28.7,13.3,29.88,NW,314,17.3,17.3,52,0.00,CLR,,0.00,WeatherDisplay:10.37,2013-03-15 09:50:00,
2013-03-15 05:55:00,28.6,13.2,29.88,NW,312,17.0,17.0,52,0.00,CLR,,0.00,WeatherDisplay:10.37,2013-03-15 09:55:00,
2013-03-15 06:00:00,28.6,12.7,29.89,NW,304,16.1,16.1,51,0.00,CLR,,0.00,WeatherDisplay:10.37,2013-03-15 10:00:00,
2013-03-15 06:05:00,28.5,12.6,29.89,WNW,299,17.3,17.3,51,0.00,CLR,,0.00,WeatherDisplay:10.37,2013-03-15 10:05:00,
2013-03-15 06:10:00,28.4,13.0,29.89,NW,306,12.7,12.7,52,0.00,CLR,,0.00,WeatherDisplay:10.37,2013-03-15 10:10:00,
2013-03-15 06:15:00,28.3,13.3,29.89,NNW,333,11.5,11.5,53,0.00,CLR,,0.00,WeatherDisplay:10.37,2013-03-15 10:15:00,
2013-03-15 06:20:00,28.1,13.1,29.89,NW,307,11.5,11.5,53,0.00,CLR,,0.00,WeatherDisplay:10.37,2013-03-15 10:20:00,
2013-03-15 06:25:00,28.1,13.1,29.89,NW,321,11.5,11.5,53,0.00,CLR,,0.00,WeatherDisplay:10.37,2013-03-15 10:25:00,
2013-03-15 06:30:00,28.0,13.5,29.89,NW,309,10.0,10.0,54,0.00,CLR,,0.00,WeatherDisplay:10.37,2013-03-15 10:30:00,
2013-03-15 06:35:00,27.9,13.0,29.89,NW,322,18.4,18.4,53,0.00,CLR,,0.00,WeatherDisplay:10.37,2013-03-15 10:35:00,
2013-03-15 06:40:00,27.9,13.0,29.89,North,355,15.0,15.0,53,0.00,CLR,,0.00,WeatherDisplay:10.37,2013-03-15 10:40:00,
2013-03-15 06:45:00,27.9,13.0,29.89,NW,313,12.0,12.0,53,0.00,CLR,,0.00,WeatherDisplay:10.37,2013-03-15 10:45:00,
2013-03-15 06:50:00,27.9,13.0,29.90,NW,321,10.4,10.4,53,0.00,CLR,,0.00,WeatherDisplay:10.37,2013-03-15 10:50:00,
2013-03-15 06:55:00,27.9,12.5,29.90,NNW,336,16.1,16.1,52,0.00,CLR,,0.00,WeatherDisplay:10.37,2013-03-15 10:55:00,
2013-03-15 07:00:00,28.0,12.6,29.90,NW,314,11.5,11.5,52,0.00,CLR,,0.00,WeatherDisplay:10.37,2013-03-15 11:00:00,
2013-03-15 07:05:00,28.0,12.6,29.90,NW,315,10.4,10.4,52,0.00,BKN,,0.00,WeatherDisplay:10.37,2013-03-15 11:05:00,
2013-03-15 07:11:00,28.0,12.2,29.90,NW,308,18.4,18.4,51,0.00,BKN,,0.00,WeatherDisplay:10.37,2013-03-15 11:11:00,
2013-03-15 07:16:00,28.0,12.2,29.90,NW,308,11.5,11.5,51,0.00,BKN,,0.00,WeatherDisplay:10.37,2013-03-15 11:16:00,
2013-03-15 07:21:00,28.1,12.3,29.90,WNW,290,15.0,15.0,51,0.00,BKN,,0.00,WeatherDisplay:10.37,2013-03-15 11:21:00,
2013-03-15 07:26:00,28.1,11.8,29.90,NW,305,14.0,14.0,50,0.00,BKN,,0.00,WeatherDisplay:10.37,2013-03-15 11:26:00,
2013-03-15 07:31:00,28.0,11.7,29.90,NW,313,15.0,15.0,50,0.00,BKN,,0.00,WeatherDisplay:10.37,2013-03-15 11:31:00,
2013-03-15 07:36:00,28.0,12.2,29.90,North,355,13.8,13.8,51,0.00,BKN,,0.00,WeatherDisplay:10.37,2013-03-15 11:36:00,
2013-03-15 07:41:00,28.0,11.7,29.90,NW,315,11.5,11.5,50,0.00,BKN,,0.00,WeatherDisplay:10.37,2013-03-15 11:41:00,
2013-03-15 07:46:00,28.0,12.2,29.91,NW,305,15.0,15.0,51,0.00,BKN,,0.00,WeatherDisplay:10.37,2013-03-15 11:46:00,
2013-03-15 07:51:00,28.1,12.3,29.90,NW,304,9.2,9.2,51,0.00,BKN,,0.00,WeatherDisplay:10.37,2013-03-15 11:51:00,
2013-03-15 07:56:00,28.5,12.6,29.90,WNW,289,13.8,13.8,51,0.00,BKN,,0.00,WeatherDisplay:10.37,2013-03-15 11:56:00,
2013-03-15 08:01:00,28.5,12.6,29.90,NW,315,11.5,11.5,51,0.00,BKN,,0.00,WeatherDisplay:10.37,2013-03-15 12:01:00,
2013-03-15 08:06:00,28.5,12.6,29.90,WNW,292,11.5,11.5,51,0.00,BKN,,0.00,WeatherDisplay:10.37,2013-03-15 12:06:00,
2013-03-15 08:11:00,28.5,12.2,29.90,WNW,284,5.0,5.0,50,0.00,BKN,,0.00,WeatherDisplay:10.37,2013-03-15 12:11:00,
2013-03-15 08:16:00,28.9,12.6,29.90,WNW,292,13.8,13.8,50,0.00,BKN,,0.00,WeatherDisplay:10.37,2013-03-15 12:16:00,
2013-03-15 08:21:00,28.7,12.8,29.90,WNW,284,11.5,11.5,51,0.00,BKN,,0.00,WeatherDisplay:10.37,2013-03-15 12:21:00,
2013-03-15 08:26:00,28.7,12.4,29.90,WNW,299,11.5,11.5,50,0.00,BKN,,0.00,WeatherDisplay:10.37,2013-03-15 12:26:00,
2013-03-15 08:31:00,28.6,12.3,29.90,WNW,291,6.0,6.0,50,0.00,BKN,,0.00,WeatherDisplay:10.37,2013-03-15 12:31:00,
2013-03-15 08:36:00,28.6,12.3,29.90,WNW,291,6.0,6.0,50,0.00,BKN,,0.00,WeatherDisplay:10.37,2013-03-15 12:36:00,
2013-03-15 08:41:00,29.1,13.6,29.90,West,264,11.5,11.5,52,0.00,BKN,,0.00,WeatherDisplay:10.37,2013-03-15 12:41:00,
2013-03-15 08:46:00,29.0,13.1,29.90,WNW,285,10.4,10.4,51,0.00,BKN,,0.00,WeatherDisplay:10.37,2013-03-15 12:46:00,
2013-03-15 08:51:00,29.0,13.1,29.91,West,265,9.2,9.2,51,0.00,BKN,,0.00,WeatherDisplay:10.37,2013-03-15 12:51:00,
2013-03-15 08:56:00,29.0,13.1,29.91,West,265,9.2,9.2,51,0.00,BKN,,0.00,WeatherDisplay:10.37,2013-03-15 12:56:00,
2013-03-15 09:01:00,29.0,13.1,29.90,North,1,0.0,0.0,51,0.00,BKN,,0.00,WeatherDisplay:10.37,2013-03-15 13:01:00,
2013-03-15 09:06:00,29.0,13.1,29.90,North,0,0.0,0.0,51,0.00,BKN,,0.00,WeatherDisplay:10.37,2013-03-15 13:06:00,
2013-03-15 09:11:00,29.0,13.1,29.90,North,0,0.0,0.0,51,0.00,BKN,,0.00,WeatherDisplay:10.37,2013-03-15 13:11:00,
2013-03-15 09:16:00,29.0,13.1,29.90,North,0,0.0,0.0,51,0.00,BKN,,0.00,WeatherDisplay:10.37,2013-03-15 13:16:00,
2013-03-15 09:21:00,29.0,13.1,29.90,North,0,0.0,0.0,51,0.00,BKN,,0.00,WeatherDisplay:10.37,2013-03-15 13:21:00,
2013-03-15 09:26:00,29.0,13.1,29.90,North,0,0.0,0.0,51,0.00,BKN,,0.00,WeatherDisplay:10.37,2013-03-15 13:26:00,
2013-03-15 09:31:00,29.0,13.1,29.90,North,0,0.0,0.0,51,0.00,BKN,,0.00,WeatherDisplay:10.37,2013-03-15 13:31:00,
2013-03-15 09:36:00,29.0,13.1,29.90,North,0,0.0,0.0,51,0.00,BKN,,0.00,WeatherDisplay:10.37,2013-03-15 13:36:00,
2013-03-15 09:41:00,29.0,13.1,29.90,North,0,0.0,0.0,51,0.00,BKN,,0.00,WeatherDisplay:10.37,2013-03-15 13:41:00,
2013-03-15 09:46:00,29.0,13.1,29.90,North,0,0.0,0.0,51,0.00,BKN,,0.00,WeatherDisplay:10.37,2013-03-15 13:46:00,
2013-03-15 09:51:00,29.0,13.1,29.89,North,0,0.0,0.0,51,0.00,BKN,,0.00,WeatherDisplay:10.37,2013-03-15 13:51:00,
2013-03-15 09:56:00,29.0,13.1,29.90,North,0,0.0,0.0,51,0.00,BKN,,0.00,WeatherDisplay:10.37,2013-03-15 13:56:00,
2013-03-15 10:01:00,29.0,13.1,29.89,North,0,0.0,0.0,51,0.00,BKN,,0.00,WeatherDisplay:10.37,2013-03-15 14:01:00,
2013-03-15 10:06:00,31.9,13.4,29.89,West,281,15.0,15.0,46,0.00,BKN,,0.00,WeatherDisplay:10.37,2013-03-15 14:06:00,
2013-03-15 10:11:00,31.8,14.3,29.89,WNW,299,10.4,10.4,48,0.00,BKN,,0.00,WeatherDisplay:10.37,2013-03-15 14:11:00,
2013-03-15 10:16:00,32.1,14.1,29.89,WNW,292,11.5,11.5,47,0.00,BKN,,0.00,WeatherDisplay:10.37,2013-03-15 14:16:00,
2013-03-15 10:21:00,33.0,15.4,29.89,WSW,250,17.3,17.3,48,0.00,BKN,,0.00,WeatherDisplay:10.37,2013-03-15 14:21:00,
2013-03-15 10:26:00,32.8,15.2,29.89,West,276,12.7,12.7,48,0.00,BKN,,0.00,WeatherDisplay:10.37,2013-03-15 14:26:00,
2013-03-15 10:31:00,33.3,16.6,29.88,WSW,241,15.0,15.0,50,0.00,BKN,,0.00,WeatherDisplay:10.37,2013-03-15 14:31:00,
2013-03-15 10:36:00,32.1,16.0,29.88,WNW,287,11.5,11.5,51,0.00,BKN,,0.00,WeatherDisplay:10.37,2013-03-15 14:36:00,
2013-03-15 10:41:00,32.9,17.2,29.88,WSW,246,15.0,15.0,52,0.00,BKN,,0.00,WeatherDisplay:10.37,2013-03-15 14:41:00,
2013-03-15 10:46:00,33.2,16.1,29.88,SSW,213,13.8,13.8,49,0.00,BKN,,0.00,WeatherDisplay:10.37,2013-03-15 14:46:00,
2013-03-15 10:51:00,33.7,17.5,29.87,WSW,246,12.7,12.7,51,0.00,BKN,,0.00,WeatherDisplay:10.37,2013-03-15 14:51:00,
2013-03-15 10:56:00,33.8,16.2,29.87,West,276,16.1,16.1,48,0.00,BKN,,0.00,WeatherDisplay:10.37,2013-03-15 14:56:00,
2013-03-15 11:01:00,34.0,16.3,29.87,West,267,13.8,13.8,48,0.00,BKN,,0.00,WeatherDisplay:10.37,2013-03-15 15:01:00,
2013-03-15 11:06:00,34.5,17.3,29.87,WSW,238,11.5,11.5,49,0.00,OVC,,0.00,WeatherDisplay:10.37,2013-03-15 15:06:00,
2013-03-15 11:11:00,34.6,17.8,29.87,West,268,13.0,13.0,50,0.00,OVC,,0.00,WeatherDisplay:10.37,2013-03-15 15:11:00,
2013-03-15 11:16:00,34.6,16.9,29.87,WSW,252,16.1,16.1,48,0.00,OVC,,0.00,WeatherDisplay:10.37,2013-03-15 15:16:00,
2013-03-15 11:21:00,34.6,17.4,29.86,West,263,16.1,16.1,49,0.00,OVC,,0.00,WeatherDisplay:10.37,2013-03-15 15:21:00,
2013-03-15 11:26:00,34.1,16.9,29.86,West,259,16.1,16.1,49,0.00,OVC,,0.00,WeatherDisplay:10.37,2013-03-15 15:26:00,
2013-03-15 11:31:00,33.6,18.7,29.86,WSW,258,11.0,11.0,54,0.00,OVC,,0.00,WeatherDisplay:10.37,2013-03-15 15:31:00,
2013-03-15 11:36:00,33.5,18.2,29.86,West,275,14.0,14.0,53,0.00,OVC,,0.00,WeatherDisplay:10.37,2013-03-15 15:36:00,
2013-03-15 11:41:00,33.7,18.4,29.85,West,277,12.7,12.7,53,0.00,OVC,,0.00,WeatherDisplay:10.37,2013-03-15 15:41:00,
2013-03-15 11:46:00,33.8,18.5,29.84,West,261,10.4,10.4,53,0.00,OVC,,0.00,WeatherDisplay:10.37,2013-03-15 15:46:00,
2013-03-15 11:51:00,33.7,20.5,29.84,West,267,13.8,13.8,58,0.00,OVC,,0.00,WeatherDisplay:10.37,2013-03-15 15:51:00,
2013-03-15 11:56:00,34.1,20.0,29.84,West,265,13.8,13.8,56,0.00,OVC,,0.00,WeatherDisplay:10.37,2013-03-15 15:56:00,
2013-03-15 12:01:00,34.7,20.6,29.84,West,266,19.6,19.6,56,0.00,OVC,,0.00,WeatherDisplay:10.37,2013-03-15 16:01:00,
2013-03-15 12:06:00,35.0,19.6,29.84,WSW,253,13.8,13.8,53,0.00,BKN,,0.00,WeatherDisplay:10.37,2013-03-15 16:06:00,
2013-03-15 12:11:00,35.4,20.4,29.83,WSW,246,13.8,13.8,54,0.00,BKN,,0.00,WeatherDisplay:10.37,2013-03-15 16:11:00,
2013-03-15 12:16:00,35.6,20.6,29.83,WSW,239,13.0,13.0,54,0.00,BKN,,0.00,WeatherDisplay:10.37,2013-03-15 16:16:00,
2013-03-15 12:21:00,35.5,20.0,29.83,WNW,295,16.1,16.1,53,0.00,BKN,,0.00,WeatherDisplay:10.37,2013-03-15 16:21:00,
2013-03-15 12:26:00,35.5,20.5,29.83,WNW,296,12.7,12.7,54,0.00,BKN,,0.00,WeatherDisplay:10.37,2013-03-15 16:26:00,
2013-03-15 12:31:00,35.5,20.0,29.82,West,265,15.0,15.0,53,0.00,BKN,,0.00,WeatherDisplay:10.37,2013-03-15 16:31:00,
2013-03-15 12:36:00,35.3,19.9,29.82,SW,225,19.6,19.6,53,0.00,BKN,,0.00,WeatherDisplay:10.37,2013-03-15 16:36:00,
2013-03-15 12:41:00,35.6,20.6,29.82,SW,222,16.1,16.1,54,0.00,BKN,,0.00,WeatherDisplay:10.37,2013-03-15 16:41:00,
2013-03-15 12:46:00,35.6,19.7,29.81,West,277,15.0,15.0,52,0.00,BKN,,0.00,WeatherDisplay:10.37,2013-03-15 16:46:00,
2013-03-15 12:51:00,35.5,20.0,29.81,SSW,209,15.0,15.0,53,0.00,BKN,,0.00,WeatherDisplay:10.37,2013-03-15 16:51:00,
2013-03-15 12:56:00,35.1,19.7,29.81,SSW,198,16.1,16.1,53,0.00,BKN,,0.00,WeatherDisplay:10.37,2013-03-15 16:56:00,
2013-03-15 13:01:00,34.7,20.2,29.81,SW,225,15.0,15.0,55,0.00,BKN,,0.00,WeatherDisplay:10.37,2013-03-15 17:01:00,
2013-03-15 13:06:00,35.0,20.4,29.80,SW,232,12.7,12.7,55,0.00,BKN,,0.00,WeatherDisplay:10.37,2013-03-15 17:06:00,
2013-03-15 13:11:00,34.8,20.3,29.80,WSW,248,16.1,16.1,55,0.00,BKN,,0.00,WeatherDisplay:10.37,2013-03-15 17:11:00,
2013-03-15 13:16:00,34.6,20.5,29.79,WSW,242,12.7,12.7,56,0.00,BKN,,0.00,WeatherDisplay:10.37,2013-03-15 17:16:00,
2013-03-15 13:21:00,34.6,20.5,29.79,WSW,242,10.4,10.4,56,0.00,BKN,,0.00,WeatherDisplay:10.37,2013-03-15 17:21:00,
2013-03-15 13:26:00,35.1,19.7,29.78,SW,233,14.0,14.0,53,0.00,BKN,,0.00,WeatherDisplay:10.37,2013-03-15 17:26:00,
2013-03-15 13:31:00,35.0,20.4,29.78,WSW,243,17.3,17.3,55,0.00,BKN,,0.00,WeatherDisplay:10.37,2013-03-15 17:31:00,
2013-03-15 13:36:00,35.4,21.7,29.78,SSW,211,15.0,15.0,57,0.00,BKN,,0.00,WeatherDisplay:10.37,2013-03-15 17:36:00,
2013-03-15 13:41:00,35.1,21.0,29.78,SW,215,15.0,15.0,56,0.00,BKN,,0.00,WeatherDisplay:10.37,2013-03-15 17:41:00,
2013-03-15 13:46:00,35.0,20.4,29.78,SW,226,13.0,13.0,55,0.00,BKN,,0.00,WeatherDisplay:10.37,2013-03-15 17:46:00,
2013-03-15 13:51:00,35.3,21.6,29.78,WSW,245,11.5,11.5,57,0.00,BKN,,0.00,WeatherDisplay:10.37,2013-03-15 17:51:00,
2013-03-15 13:56:00,35.5,21.8,29.77,WSW,239,16.0,16.0,57,0.00,BKN,,0.00,WeatherDisplay:10.37,2013-03-15 17:56:00,
2013-03-15 14:01:00,36.3,22.5,29.77,WSW,242,17.3,17.3,57,0.00,BKN,,0.00,WeatherDisplay:10.37,2013-03-15 18:01:00,
2013-03-15 14:06:00,36.9,23.1,29.76,WNW,292,18.4,18.4,57,0.00,BKN,,0.00,WeatherDisplay:10.37,2013-03-15 18:06:00,
2013-03-15 14:11:00,37.8,23.1,29.75,WSW,252,13.8,13.8,55,0.00,BKN,,0.00,WeatherDisplay:10.37,2013-03-15 18:11:00,
2013-03-15 14:16:00,38.2,21.6,29.75,West,263,22.0,22.0,51,0.00,BKN,,0.00,WeatherDisplay:10.37,2013-03-15 18:16:00,
2013-03-15 14:21:00,38.6,19.6,29.75,SW,227,20.7,20.7,46,0.00,BKN,,0.00,WeatherDisplay:10.37,2013-03-15 18:21:00,
2013-03-15 14:26:00,38.6,20.6,29.75,West,271,24.2,24.2,48,0.00,BKN,,0.00,WeatherDisplay:10.37,2013-03-15 18:26:00,
2013-03-15 14:31:00,38.6,20.1,29.74,West,261,20.7,20.7,47,0.00,BKN,,0.00,WeatherDisplay:10.37,2013-03-15 18:31:00,
2013-03-15 14:36:00,39.5,20.9,29.74,WSW,248,18.4,18.4,47,0.00,BKN,,0.00,WeatherDisplay:10.37,2013-03-15 18:36:00,
2013-03-15 14:41:00,39.5,21.9,29.73,WSW,250,24.2,24.2,49,0.00,BKN,,0.00,WeatherDisplay:10.37,2013-03-15 18:41:00,
2013-03-15 14:46:00,40.0,22.8,29.73,WSW,242,25.3,25.3,50,0.00,BKN,,0.00,WeatherDisplay:10.37,2013-03-15 18:46:00,
2013-03-15 14:51:00,40.2,24.0,29.73,West,262,19.6,19.6,52,0.00,BKN,,0.00,WeatherDisplay:10.37,2013-03-15 18:51:00,
2013-03-15 14:56:00,40.3,24.1,29.72,SSW,213,19.6,19.6,52,0.00,BKN,,0.00,WeatherDisplay:10.37,2013-03-15 18:56:00,
2013-03-15 15:01:00,40.6,26.5,29.72,SW,215,20.0,20.0,57,0.00,BKN,,0.00,WeatherDisplay:10.37,2013-03-15 19:01:00,
2013-03-15 15:06:00,40.5,24.7,29.72,WSW,254,27.6,27.6,53,0.00,OVC,,0.00,WeatherDisplay:10.37,2013-03-15 19:06:00,
2013-03-15 15:11:00,40.9,25.1,29.72,SSW,194,26.5,26.5,53,0.00,OVC,,0.00,WeatherDisplay:10.37,2013-03-15 19:11:00,
2013-03-15 15:16:00,41.2,23.9,29.72,SW,231,26.5,26.5,50,0.00,OVC,,0.00,WeatherDisplay:10.37,2013-03-15 19:16:00,
2013-03-15 15:21:00,40.8,25.0,29.72,WSW,246,27.6,27.6,53,0.00,OVC,,0.00,WeatherDisplay:10.37,2013-03-15 19:21:00,
2013-03-15 15:26:00,40.4,25.9,29.71,West,265,26.5,26.5,56,0.00,OVC,,0.00,WeatherDisplay:10.37,2013-03-15 19:26:00,
2013-03-15 15:31:00,40.3,25.4,29.71,WSW,246,26.5,26.5,55,0.00,OVC,,0.00,WeatherDisplay:10.37,2013-03-15 19:31:00,
2013-03-15 15:36:00,40.3,25.4,29.70,WSW,251,27.6,27.6,55,0.00,OVC,,0.00,WeatherDisplay:10.37,2013-03-15 19:36:00,
2013-03-15 15:41:00,40.3,25.0,29.70,West,275,24.2,24.2,54,0.00,OVC,,0.00,WeatherDisplay:10.37,2013-03-15 19:41:00,
2013-03-15 15:46:00,40.4,26.4,29.70,WSW,244,16.1,16.1,57,0.00,OVC,,0.00,WeatherDisplay:10.37,2013-03-15 19:46:00,
2013-03-15 15:51:00,40.4,25.9,29.70,WSW,257,21.9,21.9,56,0.00,OVC,,0.00,WeatherDisplay:10.37,2013-03-15 19:51:00,
2013-03-15 15:56:00,40.3,26.3,29.70,SW,223,25.3,25.3,57,0.00,OVC,,0.00,WeatherDisplay:10.37,2013-03-15 19:56:00,
2013-03-15 16:01:00,40.2,26.6,29.70,WSW,258,26.5,26.5,58,0.00,OVC,,0.00,WeatherDisplay:10.37,2013-03-15 20:01:00,
2013-03-15 16:06:00,40.0,27.2,29.70,SW,217,26.5,26.5,60,0.00,OVC,,0.00,WeatherDisplay:10.37,2013-03-15 20:06:00,
2013-03-15 16:12:00,40.4,27.2,29.70,WSW,240,26.5,26.5,59,0.00,OVC,,0.00,WeatherDisplay:10.37,2013-03-15 20:12:00,
2013-03-15 16:17:00,40.0,26.8,29.70,SW,225,29.9,29.9,59,0.00,OVC,,0.00,WeatherDisplay:10.37,2013-03-15 20:17:00,
2013-03-15 16:22:00,40.0,27.6,29.70,WSW,258,27.6,27.6,61,0.00,OVC,,0.00,WeatherDisplay:10.37,2013-03-15 20:22:00,
2013-03-15 16:27:00,39.8,27.0,29.70,West,279,26.5,26.5,60,0.00,OVC,,0.00,WeatherDisplay:10.37,2013-03-15 20:27:00,
2013-03-15 16:32:00,39.8,27.4,29.69,SW,232,27.6,27.6,61,0.00,OVC,,0.00,WeatherDisplay:10.37,2013-03-15 20:32:00,
2013-03-15 16:37:00,39.8,27.8,29.70,WSW,250,16.1,16.1,62,0.00,OVC,,0.00,WeatherDisplay:10.37,2013-03-15 20:37:00,
2013-03-15 16:42:00,39.8,29.0,29.70,SW,235,18.4,18.4,65,0.00,OVC,,0.00,WeatherDisplay:10.37,2013-03-15 20:42:00,
2013-03-15 16:47:00,39.8,28.2,29.69,SW,214,23.0,23.0,63,0.00,OVC,,0.00,WeatherDisplay:10.37,2013-03-15 20:47:00,
2013-03-15 16:52:00,39.7,28.1,29.69,WSW,244,22.0,22.0,63,0.00,OVC,,0.00,WeatherDisplay:10.37,2013-03-15 20:52:00,
2013-03-15 16:57:00,39.8,27.8,29.69,WSW,256,24.2,24.2,62,0.00,OVC,,0.00,WeatherDisplay:10.37,2013-03-15 20:57:00,
2013-03-15 17:02:00,39.9,28.7,29.69,WSW,243,23.0,23.0,64,0.00,OVC,,0.00,WeatherDisplay:10.37,2013-03-15 21:02:00,
2013-03-15 17:07:00,39.8,28.6,29.69,West,281,25.0,25.0,64,0.00,OVC,,0.00,WeatherDisplay:10.37,2013-03-15 21:07:00,
2013-03-15 17:12:00,39.8,29.0,29.69,West,261,19.6,19.6,65,0.00,OVC,,0.00,WeatherDisplay:10.37,2013-03-15 21:12:00,
2013-03-15 17:17:00,39.7,28.9,29.68,West,272,25.3,25.3,65,0.00,OVC,,0.00,WeatherDisplay:10.37,2013-03-15 21:17:00,
2013-03-15 17:22:00,39.7,29.6,29.69,West,269,18.0,18.0,67,0.00,OVC,,0.00,WeatherDisplay:10.37,2013-03-15 21:22:00,
2013-03-15 17:27:00,39.6,29.2,29.68,West,267,18.4,18.4,66,0.00,OVC,,0.00,WeatherDisplay:10.37,2013-03-15 21:27:00,
2013-03-15 17:32:00,39.6,29.2,29.68,West,261,20.7,20.7,66,0.00,OVC,,0.00,WeatherDisplay:10.37,2013-03-15 21:32:00,
2013-03-15 17:37:00,39.8,29.7,29.68,West,260,22.0,22.0,67,0.00,OVC,,0.00,WeatherDisplay:10.37,2013-03-15 21:37:00,
2013-03-15 17:42:00,39.9,29.8,29.68,West,271,18.4,18.4,67,0.00,OVC,,0.00,WeatherDisplay:10.37,2013-03-15 21:42:00,
2013-03-15 17:47:00,40.2,29.4,29.68,West,277,22.0,22.0,65,0.00,OVC,,0.00,WeatherDisplay:10.37,2013-03-15 21:47:00,
2013-03-15 17:52:00,40.4,28.4,29.68,WNW,289,16.1,16.1,62,0.00,OVC,,0.00,WeatherDisplay:10.37,2013-03-15 21:52:00,
2013-03-15 17:57:00,40.6,28.2,29.68,West,270,11.5,11.5,61,0.00,OVC,,0.00,WeatherDisplay:10.37,2013-03-15 21:57:00,
2013-03-15 18:02:00,40.7,27.9,29.68,WNW,287,19.6,19.6,60,0.00,BKN,,0.00,WeatherDisplay:10.37,2013-03-15 22:02:00,
2013-03-15 18:07:00,40.7,27.9,29.68,West,270,19.6,19.6,60,0.00,BKN,,0.00,WeatherDisplay:10.37,2013-03-15 22:07:00,
2013-03-15 18:13:00,40.6,27.8,29.68,NW,312,21.0,21.0,60,0.00,BKN,,0.00,WeatherDisplay:10.37,2013-03-15 22:13:00,
2013-03-15 18:18:00,40.6,27.4,29.68,WNW,298,20.7,20.7,59,0.00,BKN,,0.00,WeatherDisplay:10.37,2013-03-15 22:18:00,
2013-03-15 18:23:00,40.6,27.4,29.67,WNW,282,19.6,19.6,59,0.00,BKN,,0.00,WeatherDisplay:10.37,2013-03-15 22:23:00,
2013-03-15 18:28:00,40.6,28.6,29.68,WSW,246,13.8,13.8,62,0.00,BKN,,0.00,WeatherDisplay:10.37,2013-03-15 22:28:00,
2013-03-15 18:33:00,40.4,28.8,29.68,West,275,16.0,16.0,63,0.00,BKN,,0.00,WeatherDisplay:10.37,2013-03-15 22:33:00,
2013-03-15 18:38:00,40.4,29.2,29.68,West,267,15.0,15.0,64,0.00,BKN,,0.00,WeatherDisplay:10.37,2013-03-15 22:38:00,
2013-03-15 18:43:00,40.3,29.5,29.68,West,266,15.0,15.0,65,0.00,BKN,,0.00,WeatherDisplay:10.37,2013-03-15 22:43:00,
2013-03-15 18:48:00,40.2,29.7,29.68,WNW,284,15.0,15.0,66,0.00,BKN,,0.00,WeatherDisplay:10.37,2013-03-15 22:48:00,
2013-03-15 18:53:00,40.2,30.5,29.68,West,273,15.0,15.0,68,0.00,BKN,,0.00,WeatherDisplay:10.37,2013-03-15 22:53:00,
2013-03-15 18:58:00,40.1,30.7,29.68,WSW,257,15.0,15.0,69,0.00,BKN,,0.00,WeatherDisplay:10.37,2013-03-15 22:58:00,
2013-03-15 19:03:00,40.0,30.6,29.68,West,279,9.2,9.2,69,0.00,OVC,,0.00,WeatherDisplay:10.37,2013-03-15 23:03:00,
2013-03-15 19:08:00,40.0,31.0,29.68,West,267,11.5,11.5,70,0.00,OVC,,0.00,WeatherDisplay:10.37,2013-03-15 23:08:00,
2013-03-15 19:13:00,40.1,31.1,29.68,SW,234,10.4,10.4,70,0.00,OVC,,0.00,WeatherDisplay:10.37,2013-03-15 23:13:00,
2013-03-15 19:18:00,40.1,31.4,29.68,West,281,17.0,17.0,71,0.00,OVC,,0.00,WeatherDisplay:10.37,2013-03-15 23:18:00,
2013-03-15 19:23:00,40.1,31.4,29.68,WNW,282,16.0,16.0,71,0.00,OVC,,0.00,WeatherDisplay:10.37,2013-03-15 23:23:00,
2013-03-15 19:28:00,40.3,30.9,29.69,WNW,288,15.0,15.0,69,0.00,OVC,,0.00,WeatherDisplay:10.37,2013-03-15 23:28:00,
2013-03-15 19:33:00,40.5,30.4,29.69,WNW,288,16.1,16.1,67,0.00,OVC,,0.00,WeatherDisplay:10.37,2013-03-15 23:33:00,
2013-03-15 19:38:00,40.8,29.9,29.69,WNW,299,16.1,16.1,65,0.00,OVC,,0.00,WeatherDisplay:10.37,2013-03-15 23:38:00,
2013-03-15 19:43:00,41.0,29.4,29.69,WNW,295,19.6,19.6,63,0.00,OVC,,0.00,WeatherDisplay:10.37,2013-03-15 23:43:00,
2013-03-15 19:48:00,41.1,29.8,29.69,WNW,294,18.4,18.4,64,0.00,OVC,,0.00,WeatherDisplay:10.37,2013-03-15 23:48:00,
2013-03-15 19:53:00,41.0,29.7,29.69,WNW,300,19.0,19.0,64,0.00,OVC,,0.00,WeatherDisplay:10.37,2013-03-15 23:53:00,
2013-03-15 19:58:00,41.0,30.5,29.69,West,275,19.6,19.6,66,0.00,OVC,,0.00,WeatherDisplay:10.37,2013-03-15 23:58:00,
2013-03-15 20:03:00,41.1,29.5,29.69,WNW,289,15.0,15.0,63,0.00,OVC,,0.00,WeatherDisplay:10.37,2013-03-16 00:03:00,
2013-03-15 20:08:00,41.2,29.5,29.69,West,279,14.0,14.0,63,0.00,OVC,,0.00,WeatherDisplay:10.37,2013-03-16 00:08:00,
2013-03-15 20:13:00,41.3,30.0,29.69,WNW,284,18.4,18.4,64,0.00,OVC,,0.00,WeatherDisplay:10.37,2013-03-16 00:13:00,
2013-03-15 20:18:00,41.2,29.9,29.69,WSW,252,16.1,16.1,64,0.00,OVC,,0.00,WeatherDisplay:10.37,2013-03-16 00:18:00,
2013-03-15 20:23:00,41.1,30.2,29.69,WNW,285,16.1,16.1,65,0.00,OVC,,0.00,WeatherDisplay:10.37,2013-03-16 00:23:00,
2013-03-15 20:28:00,41.0,30.1,29.69,WNW,289,17.3,17.3,65,0.00,OVC,,0.00,WeatherDisplay:10.37,2013-03-16 00:28:00,
2013-03-15 20:33:00,40.9,30.4,29.70,WNW,289,18.4,18.4,66,0.00,OVC,,0.00,WeatherDisplay:10.37,2013-03-16 00:33:00,
2013-03-15 20:38:00,40.8,30.3,29.69,WNW,294,19.0,19.0,66,0.00,OVC,,0.00,WeatherDisplay:10.37,2013-03-16 00:38:00,
2013-03-15 20:43:00,40.7,30.6,29.69,WNW,298,20.7,20.7,67,0.00,OVC,,0.00,WeatherDisplay:10.37,2013-03-16 00:43:00,
2013-03-15 20:48:00,40.6,30.5,29.69,WNW,291,13.8,13.8,67,0.00,OVC,,0.00,WeatherDisplay:10.37,2013-03-16 00:48:00,
2013-03-15 20:53:00,40.4,30.7,29.69,West,273,19.6,19.6,68,0.00,OVC,,0.00,WeatherDisplay:10.37,2013-03-16 00:53:00,
2013-03-15 20:58:00,40.3,30.6,29.69,WSW,256,17.3,17.3,68,0.00,OVC,,0.00,WeatherDisplay:10.37,2013-03-16 00:58:00,
2013-03-15 21:03:00,40.2,30.5,29.69,WNW,287,12.7,12.7,68,0.00,SCT,,0.00,WeatherDisplay:10.37,2013-03-16 01:03:00,
2013-03-15 21:08:00,40.1,30.4,29.69,WNW,302,19.6,19.6,68,0.00,SCT,,0.00,WeatherDisplay:10.37,2013-03-16 01:08:00,
2013-03-15 21:13:00,40.1,30.4,29.69,WNW,289,16.0,16.0,68,0.00,SCT,,0.00,WeatherDisplay:10.37,2013-03-16 01:13:00,
2013-03-15 21:18:00,40.1,30.4,29.69,West,271,21.9,21.9,68,0.00,SCT,,0.00,WeatherDisplay:10.37,2013-03-16 01:18:00,
2013-03-15 21:23:00,40.1,30.4,29.69,West,273,13.8,13.8,68,0.00,SCT,,0.00,WeatherDisplay:10.37,2013-03-16 01:23:00,
2013-03-15 21:28:00,40.1,30.4,29.69,West,277,6.0,6.0,68,0.00,SCT,,0.00,WeatherDisplay:10.37,2013-03-16 01:28:00,
2013-03-15 21:33:00,40.1,30.4,29.69,West,277,6.0,6.0,68,0.00,SCT,,0.00,WeatherDisplay:10.37,2013-03-16 01:33:00,
2013-03-15 21:38:00,40.1,30.4,29.69,NNE,12,5.8,0.0,68,0.00,SCT,,0.00,WeatherDisplay:10.37,2013-03-16 01:38:00,
2013-03-15 21:43:00,40.1,30.4,29.69,North,0,0.0,0.0,68,0.00,SCT,,0.00,WeatherDisplay:10.37,2013-03-16 01:43:00,
2013-03-15 21:48:00,40.1,30.4,29.69,North,0,0.0,0.0,68,0.00,SCT,,0.00,WeatherDisplay:10.37,2013-03-16 01:48:00,
2013-03-15 21:53:00,40.1,30.4,29.69,North,0,0.0,0.0,68,0.00,SCT,,0.00,WeatherDisplay:10.37,2013-03-16 01:53:00,
2013-03-15 21:58:00,40.1,30.4,29.69,North,0,0.0,0.0,68,0.00,SCT,,0.00,WeatherDisplay:10.37,2013-03-16 01:58:00,
2013-03-15 22:03:00,40.1,30.4,29.69,North,0,0.0,0.0,68,0.00,CLR,,0.00,WeatherDisplay:10.37,2013-03-16 02:03:00,
2013-03-15 22:08:00,40.1,30.4,29.69,North,0,0.0,0.0,68,0.00,CLR,,0.00,WeatherDisplay:10.37,2013-03-16 02:08:00,
2013-03-15 22:13:00,40.1,30.4,29.69,North,0,0.0,0.0,68,0.00,CLR,,0.00,WeatherDisplay:10.37,2013-03-16 02:13:00,
2013-03-15 22:18:00,40.1,30.4,29.70,North,0,0.0,0.0,68,0.00,CLR,,0.00,WeatherDisplay:10.37,2013-03-16 02:18:00,
2013-03-15 22:23:00,40.1,30.4,29.70,North,0,0.0,0.0,68,0.00,CLR,,0.00,WeatherDisplay:10.37,2013-03-16 02:23:00,
2013-03-15 22:28:00,39.4,29.0,29.70,WNW,297,17.3,17.3,66,0.00,CLR,,0.00,WeatherDisplay:10.37,2013-03-16 02:28:00,
2013-03-15 22:33:00,39.3,29.3,29.70,NW,306,11.5,11.5,67,0.00,CLR,,0.00,WeatherDisplay:10.37,2013-03-16 02:33:00,
2013-03-15 22:38:00,39.2,29.2,29.70,WNW,295,13.8,13.8,67,0.00,CLR,,0.00,WeatherDisplay:10.37,2013-03-16 02:38:00,
2013-03-15 22:43:00,39.0,29.0,29.70,West,275,12.7,12.7,67,0.00,CLR,,0.00,WeatherDisplay:10.37,2013-03-16 02:43:00,
2013-03-15 22:48:00,38.9,28.9,29.70,NW,306,16.0,16.0,67,0.00,CLR,,0.00,WeatherDisplay:10.37,2013-03-16 02:48:00,
2013-03-15 22:53:00,38.9,28.9,29.70,WNW,289,15.0,15.0,67,0.00,CLR,,0.00,WeatherDisplay:10.37,2013-03-16 02:53:00,
2013-03-15 22:58:00,38.9,28.9,29.70,NW,315,15.0,15.0,67,0.00,CLR,,0.00,WeatherDisplay:10.37,2013-03-16 02:58:00,
2013-03-15 23:03:00,38.8,28.8,29.70,West,281,15.0,15.0,67,0.00,CLR,,0.00,WeatherDisplay:10.37,2013-03-16 03:03:00,
2013-03-15 23:08:00,38.7,28.3,29.70,WNW,289,19.6,19.6,66,0.00,CLR,,0.00,WeatherDisplay:10.37,2013-03-16 03:08:00,
2013-03-15 23:13:00,38.7,27.9,29.70,NW,305,12.7,12.7,65,0.00,CLR,,0.00,WeatherDisplay:10.37,2013-03-16 03:13:00,
2013-03-15 23:18:00,38.5,28.1,29.70,WNW,292,11.5,11.5,66,0.00,CLR,,0.00,WeatherDisplay:10.37,2013-03-16 03:18:00,
2013-03-15 23:23:00,38.4,27.7,29.70,WNW,288,15.0,15.0,65,0.00,CLR,,0.00,WeatherDisplay:10.37,2013-03-16 03:23:00,
2013-03-15 23:28:00,38.4,27.7,29.70,WNW,288,15.0,15.0,65,0.00,CLR,,0.00,WeatherDisplay:10.37,2013-03-16 03:28:00,
2013-03-15 23:33:00,38.4,27.3,29.70,WNW,295,17.3,17.3,64,0.00,CLR,,0.00,WeatherDisplay:10.37,2013-03-16 03:33:00,
2013-03-15 23:38:00,38.4,26.9,29.70,WNW,285,16.1,16.1,63,0.00,CLR,,0.00,WeatherDisplay:10.37,2013-03-16 03:38:00,
2013-03-15 23:43:00,38.4,26.9,29.70,WNW,296,13.8,13.8,63,0.00,CLR,,0.00,WeatherDisplay:10.37,2013-03-16 03:43:00,
2013-03-15 23:48:00,38.4,26.5,29.70,West,277,11.5,11.5,62,0.00,CLR,,0.00,WeatherDisplay:10.37,2013-03-16 03:48:00,
2013-03-15 23:53:00,38.3,26.4,29.71,NW,308,17.3,17.3,62,0.00,CLR,,0.00,WeatherDisplay:10.37,2013-03-16 03:53:00,
2013-03-15 23:58:00,38.2,26.3,29.71,WNW,293,15.0,15.0,62,0.00,CLR,,0.00,WeatherDisplay:10.37,2013-03-16 03:58:00,